Home   Weather   Washington DC   Past weeks
Flag for USA

Past Weather in Washington DC, USA — Yesterday and Last 2 Weeks

Now
52 °F

Passing clouds.


Feels Like: 49 °F
Forecast: 58 / 49 °F
Wind: 9 mph from West

Location: Reagan National Airport

Current Time: Oct 17, 2019 at 1:38:14 am

Latest Report: Oct 17, 2019 at 12:52 am


Visibility: 10 mi

Pressure: 29.59 "Hg

Humidity: 59%

Dew Point: 38 °F

Location of Washington DCLocation

Past Weather in Washington DC — Graph

°F

Washington DC Temperature Yesterday

Maximum temperature yesterday: 64 °F (at 9:27 am)
Minimum temperature yesterday: 52 °F (at 11:52 pm)
Average temperature yesterday: 60 °F

High & Low Weather Summary for the Past Weeks

 TemperatureHumidityPressure
High97 °F (Oct 2, 3:52 pm)96% (Oct 16, 1:52 pm)30.44 "Hg (Oct 16, 1:52 pm)
Low49 °F (Oct 5, 7:52 am)27% (Oct 14, 2:52 pm)29.51 "Hg (Oct 16, 4:52 pm)
Average67 °F64%30.08 "Hg
* Reported Oct 1 11:52 pm — Oct 16 11:52 pm, Washington DC. Weather by CustomWeather, © 2019

Note: Actual official high and low records may vary slightly from our data, if they occured in-between our weather recording intervals... More about our weather records

Advertising

Washington DC Weather History for the Previous 24 Hours

Scroll right to see more
 ConditionsComfort  
Time TempWeatherWind HumidityBarometerVisibility
11:52 pm
Wed, Oct 16
52 °FClear.7 mph59%29.59 "Hg10 mi
10:52 pm54 °FPassing clouds.14 mph55%29.58 "Hg10 mi
9:52 pm55 °FPassing clouds.18 mph55%29.58 "Hg10 mi
8:52 pm56 °FPassing clouds.23 mph60%29.56 "Hg10 mi
7:52 pm56 °FPassing clouds.17 mph62%29.54 "Hg10 mi
6:52 pm57 °FPassing clouds.20 mph62%29.53 "Hg10 mi
5:52 pm59 °FBroken clouds.20 mph81%29.52 "Hg10 mi
4:52 pm60 °FBroken clouds.8 mph86%29.51 "Hg10 mi
4:33 pm60 °FCloudy.13 mph86%29.52 "Hg10 mi
4:23 pm60 °FLight rain. Mostly cloudy.14 mph90%29.52 "Hg9 mi
3:52 pm60 °FLight rain. More clouds than sun.9 mph93%29.52 "Hg10 mi
2:52 pm59 °FLight rain. More clouds than sun.12 mph93%29.54 "Hg8 mi
2:33 pm59 °FRain. Fog.10 mph96%29.57 "Hg3 mi
1:52 pm59 °FRain. Fog.7 mph96%29.61 "Hg2 mi
1:39 pm59 °FHeavy rain. Fog.10 mph93%29.62 "Hg2 mi
12:52 pm60 °FHeavy rain. Fog.7 mph93%29.67 "Hg1 mi
12:36 pm61 °FHeavy rain. Fog.7 mph93%29.67 "Hg1 mi
12:16 pm61 °FHeavy rain. Fog.10 mph93%29.66 "Hg1 mi
12:03 pm62 °FHeavy rain. Fog.8 mph93%29.67 "Hg1 mi
11:42 am63 °FHeavy rain. Fog.6 mph90%29.69 "Hg2 mi
11:19 am64 °FHeavy rain. Fog.5 mph94%29.71 "Hg3 mi
11:02 am64 °FRain. Fog.9 mph94%29.74 "Hg2 mi
9:52 am64 °FLight rain. More clouds than sun.10 mph94%29.78 "Hg7 mi
9:27 am64 °FLow clouds.10 mph90%29.81 "Hg10 mi
8:52 am63 °FLow clouds.10 mph93%29.84 "Hg7 mi
7:52 am62 °FLow clouds.9 mph93%29.87 "Hg7 mi
6:52 am62 °FLow clouds.6 mph90%29.88 "Hg10 mi
5:52 am61 °FLow clouds.5 mph93%29.89 "Hg10 mi
4:52 am60 °FLow clouds.5 mph93%29.91 "Hg10 mi
3:52 am60 °FLow clouds.3 mph90%29.93 "Hg10 mi
3:38 am59 °FLow clouds.5 mph90%29.94 "Hg10 mi
3:20 am60 °FLow clouds.5 mph86%29.95 "Hg10 mi
2:52 am60 °FOvercast.6 mph90%29.96 "Hg10 mi
1:52 am59 °FPassing clouds.5 mph87%29.99 "Hg10 mi
Weather by CustomWeather, © 2019

See weather overview